Regional Weather Roundup
Issued by NWS

Home | Current Version | Previous Version | Graphics & Text | Print | Product List | Glossary On
Versions: 1 2 3 4 5 6 7 8 9 10 11 12 13 14 15 16 17 18 19 20 21 22 23 24 25 26 27 28 29 30 31 32 33 34 35 36 37 38 39 40 41 42 43 44 45 46 47 48 49 50
605
ASUS43 KLMK 040710
RWRKY
KENTUCKY REGIONAL WEATHER ROUNDUP
NATIONAL WEATHER SERVICE LOUISVILLE KY
300 AM EDT WED MAY 04 2016

NOTE "FAIR" INDICATES FEW OR NO CLOUDS BELOW 12,000 FEET
WITH NO SIGNIFICANT WEATHER AND/OR OBSTRUCTIONS TO VISIBILITY.

KYZ001>023-026-027-061>063-070>075-040800-
WESTERN AND SOUTH CENTRAL KENTUCKY

CITY           SKY/WX    TMP DP  RH WIND       PRES   REMARKS
PADUCAH        CLEAR     48  44  86 SW5       29.89F
HENDERSON      CLEAR     52  45  76 SW7       29.85F
OWENSBORO      MOCLDY    50  47  89 SW6       29.86F
HOPKINSVILLE   CLEAR     48  46  91 SW5       29.89F
BOWLING GREEN  CLOUDY    52  45  77 SW5       29.87F
GLASGOW        MOCLDY    48  48 100 CALM      29.87F
$$

KYZ024-025-028>034-038-045-046-053-040800-
NORTH CENTRAL KENTUCKY

CITY           SKY/WX    TMP DP  RH WIND       PRES   REMARKS
LOUISVILLE/SDF PTCLDY    54  44  69 CALM      29.82F
LOUISVILLE/LOU PTCLDY    51  47  86 CALM      29.83F
FORT KNOX      NOT AVBL
$$

KYZ035>037-039>044-047>052-055>060-089>105-040800-
NORTHEAST KENTUCKY

CITY           SKY/WX    TMP DP  RH WIND       PRES   REMARKS
LEXINGTON      CLOUDY    50  46  86 W5        29.83F
COVINGTON      PTCLDY    48  46  93 SW5       29.80F
FRANKFORT      CLEAR     49  45  86 SW3       29.81F
$$

KYZ054-064>069-076>088-106>120-040800-
SOUTHEAST KENTUCKY

CITY           SKY/WX    TMP DP  RH WIND       PRES   REMARKS
JACKSON        CLOUDY    51  48  89 CALM      29.82F
LONDON         CLOUDY    53  46  77 W5        29.84F
SOMERSET       CLOUDY    50  45  81 W3        29.87F
MIDDLESBORO    CLOUDY    54  49  83 S3        29.84F
MONTICELLO     CLOUDY    49  47  93 NE6       29.87F
$$





USA.gov is the U.S. government's official web portal to all federal, state and local government web resources and services.